Terminal Aerodrome Forecast
Issued by NWS Wilmington, NC

Home | Current Version | Previous Version | Text Only | Print | Product List | Glossary On
Versions: 1 2 3 4 5 6 7 8 9 10 11 12 13 14
464
FTUS42 KILM 121603 AAA
TAFLBT
TAF AMD
KLBT 121603Z 1216/1312 06009KT 6SM -SNRAPL SCT010 OVC035
     FM121900 03007KT 4SM -RA BR OVC010
     FM130000 33005KT P6SM OVC025
     FM130400 31005KT P6SM SCT025 BKN250=

USA.gov is the U.S. government's official web portal to all federal, state and local government web resources and services.